Location: Great Malvern
(52.1167°N, 2.3167°W)
Time: 00:52:01
(UTC+00:00)

Cosmos 1844 Rocket - Pass Details

Date: 18 September 2020
Orbit: 823 x 846 km, 71.0° (Epoch: 23 October)

Event Time Altitude Azimuth Distance (km) Brightness Sun altitude
Rises 19:39:38 0° 177° (S) 3,347 5.6 -13.4°
Reaches altitude 10° 19:42:15 10° 168° (SSE) 2,420 4.8 -13.7°
Maximum altitude 19:47:07 32° 106° (ESE) 1,380 3.3 -14.4°
Drops below altitude 10° 19:52:01 10° 45° (NE) 2,444 4.9 -15.1°
Sets 19:54:40 0° 36° (NE) 3,386 5.7 -15.5°
